This demonstration page uses our WeatherBlox Daily Observations layout. Learn more.

Left ArrowRight Arrow

Hourly Observations for May 22, 2015

Temp ( °F °C ) Dew Point ( °F °C ) Humidity (%) Winds ( mph kmh ) Pressure ( in mb ) Visibility ( mi km ) Precip ( " mm )
12:15 am 00:15 Cloudy 54 12 54 12 100 100 WNW 5 7 30.00 1016 10 16 N/A
12:35 am 00:35 Cloudy 54 12 52 11 94 94 NW 13 20 30.00 1016 10 16 N/A
12:55 am 00:55 Mostly Cloudy 54 12 50 10 88 88 NW 14 22 29.97 1015 10 16 N/A
1:15 am 01:15 Clear 54 12 50 10 88 88 NW 13 20 29.97 1015 10 16 N/A
1:35 am 01:35 Clear 54 12 48 9 82 82 NW 17 28 29.97 1015 10 16 N/A
1:55 am 01:55 Clear 52 11 48 9 88 88 NW 16 26 30.00 1016 10 16 N/A
2:15 am 02:15 Clear 52 11 48 9 88 88 NW 15 24 30.00 1016 10 16 N/A
2:35 am 02:35 Clear 52 11 48 9 88 88 WNW 10 17 30.00 1016 10 16 N/A
2:55 am 02:55 Clear 52 11 48 9 88 88 WNW 9 15 30.00 1016 10 16 N/A
3:15 am 03:15 Clear 52 11 48 9 88 88 NW 10 17 30.00 1016 10 16 N/A
3:35 am 03:35 Clear 52 11 46 8 82 82 WNW 12 19 30.00 1016 10 16 N/A
3:55 am 03:55 Clear 52 11 46 8 82 82 NW 12 19 30.00 1016 10 16 N/A
4:15 am 04:15 Clear 52 11 46 8 82 82 WNW 7 11 30.03 1017 10 16 N/A
4:35 am 04:35 Clear 50 10 46 8 88 88 NW 5 7 30.03 1017 10 16 N/A
4:55 am 04:55 Clear 50 10 46 8 88 88 NNW 7 11 30.03 1017 10 16 N/A
5:15 am 05:15 Clear 50 10 45 7 82 82 WNW 8 13 30.03 1017 10 16 N/A
5:35 am 05:35 Clear 50 10 45 7 82 82 W 8 13 30.09 1019 10 16 N/A
5:55 am 05:55 Sunny 50 10 45 7 82 82 WNW 7 11 30.09 1019 10 16 N/A
6:15 am 06:15 Sunny 52 11 45 7 77 77 NW 5 7 30.06 1018 10 16 N/A
6:35 am 06:35 Sunny 52 11 45 7 77 77 N N/A 30.06 1018 10 16 N/A
6:55 am 06:55 Sunny 52 11 45 7 77 77 N 3 6 30.06 1018 10 16 N/A
7:15 am 07:15 Sunny 54 12 46 8 77 77 NW 9 15 30.06 1018 10 16 N/A
7:35 am 07:35 Sunny 54 12 45 7 72 72 WNW 9 15 30.09 1019 10 16 N/A
7:55 am 07:55 Sunny 55 13 46 8 72 72 WNW 5 7 30.09 1019 10 16 N/A
8:15 am 08:15 Sunny 57 14 46 8 67 67 WNW 8 13 30.09 1019 10 16 N/A
8:35 am 08:35 Sunny 59 15 46 8 63 63 WNW 10 17 30.09 1019 10 16 N/A
8:55 am 08:55 Sunny 59 15 46 8 63 63 NW 8 13 30.12 1020 10 16 N/A
9:15 am 09:15 Sunny 61 16 46 8 59 59 WNW 9 15 30.12 1020 10 16 N/A
9:35 am 09:35 Sunny 61 16 46 8 59 59 WNW 9 15 30.12 1020 10 16 N/A
9:55 am 09:55 Sunny 63 17 46 8 56 56 W 14 22 30.12 1020 10 16 N/A
10:15 am 10:15 Sunny 63 17 48 9 59 59 W 10 17 30.12 1020 10 16 N/A
10:35 am 10:35 Sunny 64 18 46 8 52 52 WNW 14 22 30.12 1020 10 16 N/A
10:55 am 10:55 Sunny 64 18 46 8 52 52 NW 14 22 30.12 1020 10 16 N/A
11:15 am 11:15 Sunny 64 18 45 7 49 49 WNW 12 19 30.12 1020 10 16 N/A
11:35 am 11:35 Sunny 68 20 45 7 43 43 WNW 16 26 30.15 1021 10 16 N/A
11:55 am 11:55 Sunny 68 20 46 8 46 46 W 15 24 30.15 1021 10 16 N/A
12:15 pm 12:15 Sunny 70 21 46 8 43 43 W 8 13 30.12 1020 10 16 N/A
12:35 pm 12:35 Sunny 70 21 45 7 40 40 NW 14 22 30.12 1020 10 16 N/A
12:55 pm 12:55 Sunny 70 21 46 8 43 43 W 16 26 30.12 1020 10 16 N/A
1:15 pm 13:15 Sunny 72 22 46 8 41 41 WNW 16 26 30.12 1020 10 16 N/A
1:35 pm 13:35 Sunny 72 22 46 8 41 41 NW 14 22 30.12 1020 10 16 N/A
1:55 pm 13:55 Partly Cloudy 72 22 46 8 41 41 WNW 9 15 30.09 1019 10 16 N/A
2:15 pm 14:15 Partly Cloudy 72 22 46 8 41 41 W 16 26 30.09 1019 10 16 N/A
2:35 pm 14:35 Sunny 73 23 46 8 38 38 W 13 20 30.09 1019 10 16 N/A
2:55 pm 14:55 Sunny 73 23 45 7 36 36 W 17 28 30.09 1019 10 16 N/A
3:15 pm 15:15 Sunny 73 23 45 7 36 36 WNW 22 35 30.09 1019 10 16 N/A
3:35 pm 15:35 Sunny 73 23 46 8 38 38 WNW 15 24 30.09 1019 10 16 N/A
3:55 pm 15:55 Sunny 73 23 45 7 36 36 WNW 17 28 30.09 1019 10 16 N/A
4:15 pm 16:15 Partly Cloudy 73 23 43 6 33 33 WNW 21 33 30.09 1019 10 16 N/A
4:35 pm 16:35 Partly Cloudy 73 23 43 6 33 33 WNW 21 33 30.09 1019 10 16 N/A
4:55 pm 16:55 Sunny 75 24 45 7 34 34 W 20 31 30.09 1019 10 16 N/A
5:15 pm 17:15 Sunny 73 23 43 6 33 33 WNW 16 26 30.09 1019 10 16 N/A
5:35 pm 17:35 Sunny 73 23 43 6 33 33 WNW 23 37 30.09 1019 10 16 N/A
5:55 pm 17:55 Sunny 73 23 45 7 36 36 WNW 18 30 30.09 1019 10 16 N/A
6:15 pm 18:15 Sunny 73 23 45 7 36 36 WNW 13 20 30.12 1020 10 16 N/A
6:35 pm 18:35 Partly Cloudy 72 22 45 7 38 38 WNW 15 24 30.12 1020 10 16 N/A
6:55 pm 18:55 Partly Cloudy 72 22 45 7 38 38 W 8 13 30.12 1020 10 16 N/A
7:15 pm 19:15 Sunny 72 22 45 7 38 38 W 16 26 30.12 1020 10 16 N/A
7:35 pm 19:35 Sunny 70 21 45 7 40 40 WNW 17 28 30.12 1020 10 16 N/A
7:55 pm 19:55 Sunny 70 21 45 7 40 40 WNW 14 22 30.15 1021 10 16 N/A
8:15 pm 20:15 Sunny 68 20 45 7 43 43 WNW 14 22 30.15 1021 10 16 N/A
8:35 pm 20:35 Clear 68 20 45 7 43 43 W 10 17 30.15 1021 10 16 N/A
8:55 pm 20:55 Clear 66 19 45 7 46 46 W 8 13 30.15 1021 10 16 N/A
9:15 pm 21:15 Clear 64 18 46 8 52 52 W 8 13 30.18 1022 10 16 N/A
9:35 pm 21:35 Clear 64 18 46 8 52 52 W 8 13 30.18 1022 10 16 N/A
9:55 pm 21:55 Clear 64 18 46 8 52 52 W 9 15 30.21 1023 10 16 N/A
10:15 pm 22:15 Clear 64 18 46 8 52 52 W 10 17 30.21 1023 10 16 N/A
10:35 pm 22:35 Clear 64 18 48 9 56 56 WNW 9 15 30.21 1023 10 16 N/A
10:55 pm 22:55 Clear 64 18 48 9 56 56 WNW 7 11 30.24 1024 10 16 N/A
11:15 pm 23:15 Partly Cloudy 63 17 48 9 59 59 NW 7 11 30.27 1025 10 16 N/A
11:35 pm 23:35 Partly Cloudy 63 17 43 6 49 49 NNW 9 15 30.27 1025 10 16 N/A
11:55 pm 23:55 Partly Cloudy 63 17 37 3 39 39 NNW 10 17 30.27 1025 10 16 N/A

Powered by AerisWeather